Location: West Cummington
(42.4920°N, 72.9680°W)
Time: 12:38:20
(UTC-04:00)

Daily predictions for brighter satellites

Satellite Brightness Start Highest point End
(mag) Time Altitude Azimuth Time Altitude Azimuth Time Altitude Azimuth
NOSS 2-1 (E) 3.5 20:00:54 10° SSW 20:04:21 44° ESE 20:08:10 10° NE
OAO 2 Rocket 4.3 20:00:20 10° WSW 20:05:04 35° S 20:09:43 10° ESE
Cosmos 2333 Rocket 2.8 20:04:47 10° SSE 20:09:47 34° ESE 20:14:49 10° NE
Cosmos 1633 Rocket 3.7 20:06:00 10° N 20:10:01 35° ENE 20:14:01 10° SE
COSMOS 2428 2.7 20:09:13 10° S 20:14:52 64° ESE 20:20:32 10° NNE
CZ-2D R/B 3.3 20:12:59 10° S 20:16:47 82° WSW 20:20:37 10° NNW
NOSS 3-3 (A) 4.2 20:11:30 10° S 20:17:13 48° ESE 20:23:26 10° NE
NOSS 3-3 (C) 4.2 20:11:37 10° S 20:17:19 48° ESE 20:23:32 10° NE
Cosmos 2333 4.2 20:11:44 10° SSW 20:17:20 70° ESE 20:22:56 10° NNE
Cosmos 1844 Rocket 2.7 20:12:06 10° NNW 20:17:48 76° ENE 20:23:27 10° SSE
Cosmos 2228 Rocket 4.3 20:17:16 10° SE 20:20:39 22° E 20:24:02 10° NE
Cosmos 1844 3.8 20:15:29 10° NNW 20:21:09 64° ENE 20:26:50 10° SE
Cosmos 2221 3.7 20:17:15 10° SSW 20:21:22 48° WNW 20:25:31 10° N
Cosmos 1455 2.9 20:19:27 10° SSE 20:22:54 34° E 20:26:25 10° NNE
Cosmos 1408 4.3 20:22:46 10° NNE 20:25:18 18° ENE 20:27:17 12° ESE
ERS-2 2.2 20:22:04 10° SSE 20:25:43 86° WSW 20:29:25 10° NNW
Cosmos 2219 Rocket 2.3 20:23:01 10° S 20:28:33 57° ESE 20:34:05 10° NNE
Cosmos 1892 2.8 20:25:01 10° N 20:28:53 62° E 20:32:43 10° SSE
Cosmos 2237 Rocket 3.0 20:24:30 10° SSE 20:29:10 28° ESE 20:33:52 10° NE
H-2A R/B 3.7 20:27:13 10° E 20:30:12 16° ENE 20:33:10 10° NNE
Cosmos 2154 Rocket 4.0 20:25:13 10° S 20:31:27 77° E 20:37:41 10° N
Cosmos 1805 Rocket 4.1 20:30:01 10° NNW 20:34:18 60° W 20:38:33 10° S
Cosmos 2278 Rocket 2.9 20:32:09 10° N 20:37:28 39° ENE 20:41:43 15° ESE
CZ-3B R/B 3.8 20:36:32 10° N 20:37:33 14° NNE 20:38:09 13° ENE
Cosmos 1328 Rocket 3.7 20:36:49 10° S 20:41:06 53° E 20:45:26 10° NNE
Genesis I 3.8 20:38:51 10° NNW 20:42:48 47° NE 20:45:30 19° ESE
YAOGAN 6 2.7 20:39:13 10° S 20:42:48 79° W 20:46:28 10° NNW
Cosmos 2251 Rocket 3.9 20:38:31 10° NNW 20:43:54 70° WSW 20:49:12 10° S
Resurs 01 Rocket 1.6 20:39:32 10° SSE 20:43:59 83° ENE 20:48:27 10° NNW
NOAA 11 4.4 20:38:53 10° SSE 20:44:14 56° ENE 20:49:37 10° N
Envisat 4.1 20:43:30 10° S 20:48:21 45° W 20:53:14 10° NNW
Cosmos 1470 Rocket 3.7 20:47:51 10° N 20:52:11 53° E 20:55:28 17° SSE
Cosmos 2341 Rocket 4.0 20:46:52 10° S 20:53:13 76° E 20:59:33 10° N
ATLAS CENTAUR R/B 1.0 20:52:15 10° SSW 20:55:51 65° ESE 20:59:38 10° NE
Cosmos 1340 4.2 20:54:04 10° SW 20:57:37 39° WNW 21:01:13 10° N
Cosmos 962 Rocket 4.4 20:52:20 10° S 20:58:26 86° E 21:04:39 10° N
Cosmos 2218 Rocket 4.3 20:53:41 10° SSE 20:59:42 47° E 21:05:47 10° NNE
Cosmos 2098 Rocket 3.9 20:58:56 21° SE 21:01:03 31° E 21:04:36 10° NNE
Aureole 2 3.9 21:02:13 10° SSW 21:05:15 76° ESE 21:08:13 10° NNE
NOSS 0 Rocket 3.8 21:01:34 10° SSW 21:07:40 72° ESE 21:13:52 10° NNE
Cosmos 1825 2.3 21:06:31 10° N 21:10:15 54° E 21:11:38 33° SE
Cosmos 2366 rocket 4.1 21:06:59 12° SSE 21:12:38 53° E 21:18:43 10° NNE
BREEZE-M DEB (TANK) 4.2 21:11:36 10° WNW 21:13:43 21° NNW 21:15:23 11° NE
Cosmos 405 4.3 21:11:19 10° NNE 21:14:09 24° ENE 21:14:09 24° ENE
Cosmos 1624 Rocket 4.4 21:12:37 22° SSE 21:15:20 38° ESE 21:20:07 10° NE
SL-16 R/B 3.0 21:17:50 28° ESE 21:18:32 29° ESE 21:23:18 10° NE
USA 186 4.3 21:19:55 10° WSW 21:20:30 11° W 21:21:05 10° WNW
Cosmos 1933 Rocket 3.5 21:16:30 10° N 21:20:55 89° WNW 21:23:24 25° S
Meteor 2-3 Rocket 4.2 21:15:57 10° NNW 21:21:27 58° W 21:26:58 10° S
SL-8 Rocket 3.9 21:16:00 10° S 21:22:18 84° E 21:28:37 10° N
GEOS 3 Rocket 4.0 21:20:44 10° NE 21:25:44 39° ESE 21:30:37 10° S
Terra 3.7 21:26:13 14° ENE 21:26:42 14° ENE 21:29:13 10° NNE
ARGOS 3.1 21:25:39 30° SSE 21:28:17 67° ENE 21:33:37 10° N
Cosmos 1869 3.2 21:27:19 35° S 21:28:53 72° E 21:32:55 10° NNE
Cosmos 1339 Rocket 4.4 21:23:23 10° N 21:29:26 64° E 21:32:32 30° SSE
Cosmos 1151 Rocket 3.3 21:25:15 10° SSW 21:29:28 67° W 21:33:45 10° N
ATLAS 2AS CENTAUR R/B 3.1 21:22:41 10° NW 21:30:31 68° WSW 21:35:15 24° SSE
Spot 2 Rocket 4.4 21:26:24 10° S 21:31:18 47° W 21:36:13 10° NNW
MetOp-B 4.1 21:30:49 34° SE 21:33:07 66° ENE 21:38:26 10° N
Lacrosse 5 4.2 21:35:25 10° NNW 21:38:46 17° NNE 21:42:08 10° NE
BREEZE-M DEB (TANK) 3.9 21:33:57 10° WNW 21:39:24 29° NNW 21:41:03 17° NE
SPOT 5 3.5 21:40:05 35° E 21:40:27 35° ENE 21:44:32 10° N
Cosmos 1869 Rocket 3.8 21:38:50 10° N 21:43:05 47° ENE 21:43:13 47° E
Helios 1B rocket 4.1 21:41:35 10° NE 21:43:24 21° ENE 21:43:24 21° ENE
Cosmos 1980 4.1 21:39:33 10° SW 21:45:12 66° WNW 21:50:53 10° NNE
Cosmos 2297 3.9 21:43:10 10° NNW 21:48:45 56° ENE 21:50:11 44° ESE
Meteor 2-10 Rocket 3.6 21:46:07 25° S 21:49:36 83° E 21:55:27 10° NNE
DMSP B5D2-2 4.4 21:45:46 10° NNE 21:50:47 44° E 21:50:48 44° E
Cosmos 2333 Rocket 3.7 21:48:46 10° SW 21:53:58 37° WNW 21:59:11 10° N
Cosmos 2369 Rocket 4.1 21:53:26 10° N 21:57:01 17° NE 21:58:28 15° ENE
Cosmos 1441 Rocket 4.1 21:59:48 38° NNE 21:59:48 38° NNE 22:02:15 10° NNE
Helios 1A 3.0 21:59:12 66° ENE 21:59:12 66° ENE 22:03:16 10° N
Cosmos 1408 4.4 21:57:15 10° NNW 22:00:25 28° W 22:01:43 22° SW
SPOT 1/Viking Rocket 3.7 22:00:11 52° E 22:00:47 55° ENE 22:05:54 10° N
NOSS 3-4 (A) 3.8 21:53:54 10° NNW 22:00:56 72° NE 22:03:34 43° SE
NOSS 3-4 (C) 3.8 21:54:01 10° NNW 22:01:03 72° NE 22:03:40 43° ESE
USA 81 3.9 21:56:03 10° N 22:01:21 89° E 22:02:39 53° S
H-2A R/B 2.1 22:07:50 49° SSW 22:09:06 67° WSW 22:14:04 10° NNW
SL-19 R/B 4.3 22:08:29 55° ESE 22:09:14 60° ENE 22:14:44 10° N
Cosmos 407 Rocket 3.3 22:05:20 10° NNW 22:10:29 82° WSW 22:11:08 68° S
ERS-1 Rocket 3.1 22:10:13 54° SSW 22:11:15 70° WSW 22:16:17 10° NNW
USA 267 3.1 22:04:57 10° NE 22:11:26 63° SE 22:17:53 10° SW
SL-8 R/B 3.8 22:06:41 10° WSW 22:11:29 74° NNW 22:12:51 46° NE
Cosmos 2219 Rocket 4.5 22:08:21 10° WSW 22:12:52 24° NW 22:17:24 10° N
Cosmos 2237 Rocket 3.3 22:07:39 10° SW 22:12:59 43° WNW 22:18:22 10° NNE
Cosmos 1862 3.6 22:10:30 10° N 22:14:04 65° NW 22:14:04 65° NW
Cosmos 614 Rocket 4.1 22:09:43 10° NNW 22:14:54 58° ENE 22:14:58 58° ENE
Cosmos 2278 Rocket 3.6 22:16:28 10° NW 22:21:25 32° WSW 22:23:35 24° SW
Cosmos 405 Rocket 3.8 22:28:05 42° NNW 22:28:05 42° NNW 22:30:57 10° N
Cosmos 1000 Rocket 4.3 22:22:27 10° N 22:28:40 80° E 22:29:25 69° SE
ATLAS 5 CENTAUR R/B 3.9 22:24:39 10° NNW 22:29:23 25° NE 22:31:07 22° ENE
Cosmos 676 Rocket 3.9 22:24:06 10° NNW 22:29:20 88° NNW 22:29:20 88° NNW
Cosmos 1821 Rocket 3.9 22:33:03 70° SSE 22:33:45 79° E 22:40:05 10° N
ATLAS CENTAUR R/B 4.3 22:33:08 10° WNW 22:35:16 14° NW 22:37:29 10° N
Cosmos 1452 Rocket 3.8 22:42:01 58° NNE 22:42:01 58° NNE 22:46:15 10° NNE
USA 234 3.9 22:43:06 36° ENE 22:45:12 47° NNE 22:51:25 10° NW
Landsat 7 4.2 22:46:49 60° NW 22:46:49 60° NW 22:50:52 10° NNW
Cosmos 2123 Rocket 4.0 22:43:49 10° N 22:49:58 68° ENE 22:49:58 68° ENE
SL-16 R/B 3.2 22:59:33 25° WSW 23:02:25 42° WNW 23:07:48 10° NNE
Cosmos 2344 3.5 22:58:41 31° SW 23:02:50 85° NW 23:11:18 10° NE
Terra 2.7 23:05:06 48° NW 23:05:06 48° NW 23:08:37 10° NNW
Cosmos 1140 Rocket 4.3 23:02:37 10° NNW 23:06:46 44° WNW 23:06:46 44° WNW
CZ-4C R/B 3.3 23:13:19 36° NE 23:13:19 36° NE 23:16:49 10° NE
SeaSat 1 4.5 23:12:26 19° NE 23:12:26 19° NE 23:15:34 10° N
CZ-2C R/B 3.9 23:14:25 42° N 23:14:25 42° N 23:17:36 10° NNW
Cosmos 1241 Rocket 4.5 23:06:58 10° NNW 23:12:48 77° NW 23:12:48 77° NW
Cosmos 1943 Rocket 3.2 23:09:05 10° NNW 23:13:21 38° NE 23:13:21 38° NE
Lacrosse 5 3.1 23:18:09 10° NW 23:21:58 37° N 23:21:58 37° N
Cosmos 1605 Rocket 4.1 23:24:41 72° N 23:24:41 72° N 23:30:23 10° N
Cosmos 1603 4.4 23:30:41 48° N 23:30:41 48° N 23:34:44 10° NNE
Cosmos 1943 4.5 23:36:34 33° NE 23:36:34 33° NE 23:39:36 10° NNE
Cosmos 2369 Rocket 2.9 23:36:08 10° NNW 23:40:15 50° NNW 23:40:15 50° NNW
Mayak 1.7 23:47:12 10° NNE 23:47:28 12° NNE 23:47:28 12° NNE
